Location: Lane
(33.5226°N, 79.8788°W)
Time: 11:33:38
(UTC+00:00)

Explorer 7 - Pass Details

Date: 10 October 2022
Orbit: 481 x 665 km, 50.3° (Epoch: 26 November)

Event Time Altitude Azimuth Distance (km) Brightness Sun altitude
Rises 18:15:09 0° 319° (NW) 2,989 10.4 46.5°
Reaches altitude 10° 18:18:00 10° 335° (NNW) 2,058 9.6 46.2°
Maximum altitude 18:21:43 22° 26° (NNE) 1,386 8.7 45.9°
Drops below altitude 10° 18:25:18 10° 78° (ENE) 1,983 9.5 45.5°
Sets 18:27:59 0° 94° (E) 2,851 10.3 45.2°
